Miscellaneous Local Product
Issued by NWS Hastings, NE

Home | Current Version | Previous Version | Text Only | Print | Product List | Glossary On
Versions: 1 2 3 4 5 6 7 8 9 10 11 12 13 14 15 16 17 18 19 20 21 22 23 24 25 26 27 28 29 30 31 32 33 34 35 36 37 38 39 40 41 42 43 44 45 46 47 48 49 50
000
AXUS43 KGID 130902
MISGRI

GID CWA HOURLY WEATHER ROUNDUP
NATIONAL WEATHER SERVICE HASTINGS NE
300 AM CST WED DEC 13 2017

NOTE: "FAIR" INDICATES FEW OR NO CLOUDS BELOW 12,000 FEET WITH NO
SIGNIFICANT WEATHER AND/OR OBSTRUCTIONS TO VISIBILITY.

...SOUTH CENTRAL NEBRASKA...

CITY           SKY/WX    TMP DP  RH WIND       PRES   REMARKS
GRAND ISLAND   PTCLDY    38  22  52 W13       29.76R WCI  30
KEARNEY        MOCLDY    42  19  39 NW14      29.80R
HASTINGS       CLEAR     39  20  46 W13       29.77R WCI  31
ORD            PTCLDY    49  18  29 NW20G31   29.77R
YORK           CLEAR     39  23  52 W13       29.72S WCI  32
AURORA         PTCLDY    41  21  44 NW17      29.73F
LEXINGTON      CLOUDY    37  19  49 NW17      29.84R WCI  27
HOLDREGE       CLEAR     39  21  47 NW12      29.83R WCI  32
HEBRON         CLEAR     38  22  51 W3        29.75S

...NEBRASKA PANHANDLE...

CITY           SKY/WX    TMP DP  RH WIND       PRES   REMARKS
CHADRON        CLOUDY    49  13  23 W20       29.99R
ALLIANCE       CLOUDY    49  11  21 NW23G32   29.96R
SCOTTSBLUFF    CLOUDY    40  15  36 W12       30.04R WCI  33
SIDNEY         CLOUDY    43  11  27 NW15      30.01R

...WESTERN AND NORTH CENTRAL NEBRASKA...

CITY           SKY/WX    TMP DP  RH WIND       PRES   REMARKS
VALENTINE      CLOUDY    55  18  23 NW25G41   29.82R
AINSWORTH      CLOUDY    52  21  30 NW17G29   29.78S
ONEILL         CLEAR     51  21  31 NW21G30   29.72R
BROKEN BOW     MOCLDY    53  17  24 NW24G32   29.80S
IMPERIAL       CLOUDY    40  13  33 W13       29.93R WCI  32
NORTH PLATTE   CLOUDY    27  19  72 NW9       29.89R WCI  18
MCCOOK         CLOUDY    38  16  40 W18       29.88R WCI  28

...EASTERN NEBRASKA...

CITY           SKY/WX    TMP DP  RH WIND       PRES   REMARKS
NORFOLK        PTCLDY    46  21  37 W18G30    29.64F
SO SIOUX CITY  PTCLDY    28  21  75 W10       29.58F WCI  19
TEKAMAH        CLOUDY    37  21  52 W14       29.61F WCI  28
ALBION         CLOUDY    53  19  26 NW15G21   29.70S
OMAHA EPPLEY   CLOUDY    30  22  72 S6        29.64F WCI  24
OFFUTT AFB     CLOUDY    23  19  86 CALM      29.65F
MILLARD        CLOUDY    40  25  55 W5        29.65F
LINCOLN        CLEAR     33  21  61 CALM      29.71F
NEBRASKA CITY  CLEAR     37  25  60 SW13      29.67F WCI  29
BEATRICE       CLEAR     37  23  57 SW8       29.72S WCI  30
FALLS CITY     CLEAR     39  23  52 SW5       29.70F

...NORTHERN KANSAS...

CITY           SKY/WX    TMP DP  RH WIND       PRES   REMARKS
GOODLAND       CLEAR     40  14  34 W15       29.96R WCI  32
HILL CITY      CLEAR     48  18  30 W12       29.86S
NORTON         SUNNY     45  10  24 W18G24    29.84S
PHILLIPSBURG   CLEAR     46  16  29 W15       29.82S
SMITH CENTER   CLEAR     28  18  64 W7        29.82S WCI  21
HAYS           CLEAR     40  17  39 W9        29.86S WCI  34
RUSSELL        CLEAR     36  19  50 SW10      29.83S WCI  28
CONCORDIA      CLOUDY    41  19  41 W14       29.76F
SALINA         CLEAR     40  20  44 SW10      29.80F WCI  33
TOPEKA         CLEAR     39  28  64 SW7       29.79F WCI  34



USA.gov is the U.S. government's official web portal to all federal, state and local government web resources and services.